Location: Piotrkow Trybunalski
(51.4000°N, 19.6830°E)
Time: 23:55:35
(UTC+01:00)

A-11 Canister half - Pass Details

Date: 20 December 2023
Orbit: 1512 x 1687 km, 47.2° (Epoch: 23 February)

Event Time Altitude Azimuth Distance (km) Brightness Sun altitude
Rises 20:50:40 0° 241° (WSW) 4,661 11.9 -47.4°
Reaches altitude 10° 20:53:42 10° 238° (WSW) 3,692 11.2 -47.8°
Enters shadow 20:56:09 21° 234° (SW) 2,952 10.6 -48.1°
